Time,TemperatureF,DewpointF,PressureIn,WindDirection,WindDirectionDegrees,WindSpeedMPH,WindSpeedGustMPH,Humidity,HourlyPrecipIn,Conditions,Clouds,dailyrainin,SoftwareType,DateUTC
2013-01-18 00:02:00,36.0,34.0,30.30,NE,44,0.0,2.0,91,0.00,,,0.01,,2013-01-18 08:02:00,
2013-01-18 00:11:00,36.0,34.0,30.30,NE,44,0.0,2.0,91,0.00,,,0.01,,2013-01-18 08:11:00,
2013-01-18 00:22:00,36.0,34.0,30.30,North,360,0.0,2.0,91,0.00,,,0.01,,2013-01-18 08:22:00,
2013-01-18 00:32:00,36.0,34.0,30.29,North,360,2.0,3.0,91,0.00,,,0.01,,2013-01-18 08:32:00,
2013-01-18 00:42:00,36.0,34.0,30.29,North,360,2.0,3.0,91,0.00,,,0.01,,2013-01-18 08:42:00,
2013-01-18 00:53:00,36.0,34.0,30.29,NNW,342,1.0,3.0,91,0.00,,,0.01,,2013-01-18 08:53:00,
2013-01-18 01:02:00,37.0,35.0,30.29,NNW,342,1.0,2.0,91,0.00,,,0.01,,2013-01-18 09:02:00,
2013-01-18 01:12:00,37.0,35.0,30.29,NNW,342,1.0,2.0,91,0.00,,,0.01,,2013-01-18 09:12:00,
2013-01-18 01:22:00,37.0,35.0,30.29,East,82,0.0,3.0,91,0.00,,,0.01,,2013-01-18 09:22:00,
2013-01-18 01:32:00,37.0,35.0,30.30,NNW,342,0.0,2.0,91,0.00,,,0.01,,2013-01-18 09:32:00,
2013-01-18 01:42:00,37.0,35.0,30.30,NNW,342,0.0,2.0,91,0.00,,,0.01,,2013-01-18 09:42:00,
2013-01-18 01:52:00,37.0,35.0,30.30,ENE,64,0.0,3.0,91,0.00,,,0.01,,2013-01-18 09:52:00,
2013-01-18 02:02:00,37.0,35.0,30.30,NNW,346,0.0,3.0,91,0.00,,,0.01,,2013-01-18 10:02:00,
2013-01-18 02:12:00,37.0,35.0,30.30,NNW,346,0.0,3.0,91,0.00,,,0.01,,2013-01-18 10:12:00,
2013-01-18 02:22:00,37.0,35.0,30.30,NNW,346,0.0,2.0,91,0.00,,,0.01,,2013-01-18 10:22:00,
2013-01-18 02:32:00,37.0,35.0,30.30,NNW,346,0.0,2.0,91,0.00,,,0.01,,2013-01-18 10:32:00,
2013-01-18 02:42:00,37.0,35.0,30.30,NNW,346,0.0,2.0,91,0.00,,,0.01,,2013-01-18 10:42:00,
2013-01-18 02:52:00,37.0,35.0,30.30,NNW,346,0.0,1.0,91,0.00,,,0.01,,2013-01-18 10:52:00,
2013-01-18 03:02:00,37.0,35.0,30.29,NNW,346,0.0,2.0,91,0.00,,,0.01,,2013-01-18 11:02:00,
2013-01-18 03:12:00,37.0,35.0,30.29,NNW,346,0.0,2.0,91,0.00,,,0.01,,2013-01-18 11:12:00,
2013-01-18 03:22:00,37.0,35.0,30.30,North,360,0.0,2.0,91,0.00,,,0.01,,2013-01-18 11:22:00,
2013-01-18 03:32:00,37.0,35.0,30.30,North,360,0.0,1.0,91,0.00,,,0.01,,2013-01-18 11:32:00,
2013-01-18 03:42:00,37.0,35.0,30.30,North,360,0.0,1.0,91,0.00,,,0.01,,2013-01-18 11:42:00,
2013-01-18 03:53:00,37.0,35.0,30.29,NNW,338,1.0,2.0,91,0.00,,,0.01,,2013-01-18 11:53:00,
2013-01-18 04:02:00,37.0,35.0,30.29,NNW,338,0.0,1.0,91,0.00,,,0.01,,2013-01-18 12:02:00,
2013-01-18 04:12:00,37.0,35.0,30.29,NNW,338,0.0,1.0,91,0.00,,,0.01,,2013-01-18 12:12:00,
2013-01-18 04:22:00,37.0,35.0,30.29,NNW,338,0.0,3.0,91,0.00,,,0.01,,2013-01-18 12:22:00,
2013-01-18 04:32:00,37.0,35.0,30.29,NNW,330,0.0,3.0,91,0.00,,,0.01,,2013-01-18 12:32:00,
2013-01-18 04:42:00,37.0,35.0,30.29,NNW,330,0.0,3.0,91,0.00,,,0.01,,2013-01-18 12:42:00,
2013-01-18 04:53:00,37.0,35.0,30.29,NW,312,0.0,4.0,91,0.00,,,0.01,,2013-01-18 12:53:00,
2013-01-18 05:02:00,37.0,35.0,30.29,NW,313,0.0,2.0,91,0.00,,,0.01,,2013-01-18 13:02:00,
2013-01-18 05:12:00,37.0,35.0,30.29,NW,313,0.0,2.0,91,0.00,,,0.01,,2013-01-18 13:12:00,
2013-01-18 05:22:00,37.0,35.0,30.29,NW,313,0.0,1.0,91,0.00,,,0.01,,2013-01-18 13:22:00,
2013-01-18 05:33:00,37.0,35.0,30.29,ENE,67,0.0,1.0,91,0.00,,,0.01,,2013-01-18 13:33:00,
2013-01-18 05:42:00,37.0,35.0,30.29,ENE,67,0.0,1.0,91,0.00,,,0.01,,2013-01-18 13:42:00,
2013-01-18 05:53:00,37.0,35.0,30.28,East,87,0.0,2.0,91,0.00,,,0.01,,2013-01-18 13:53:00,
2013-01-18 06:02:00,37.0,35.0,30.28,WNW,300,0.0,1.0,91,0.00,,,0.01,,2013-01-18 14:02:00,
2013-01-18 06:12:00,37.0,35.0,30.28,WNW,300,0.0,1.0,91,0.00,,,0.01,,2013-01-18 14:12:00,
2013-01-18 06:22:00,37.0,35.0,30.28,North,355,0.0,3.0,91,0.00,,,0.01,,2013-01-18 14:22:00,
2013-01-18 06:33:00,36.0,34.0,30.28,ENE,75,0.0,5.0,91,0.00,,,0.01,,2013-01-18 14:33:00,
2013-01-18 06:42:00,36.0,34.0,30.28,ENE,75,0.0,5.0,91,0.00,,,0.01,,2013-01-18 14:42:00,
2013-01-18 06:53:00,37.0,35.0,30.28,West,278,0.0,3.0,91,0.00,,,0.01,,2013-01-18 14:53:00,
2013-01-18 07:02:00,37.0,35.0,30.28,West,278,1.0,2.0,91,0.00,,,0.01,,2013-01-18 15:02:00,
2013-01-18 07:12:00,37.0,35.0,30.28,West,278,1.0,2.0,91,0.00,,,0.01,,2013-01-18 15:12:00,
2013-01-18 07:22:00,37.0,35.0,30.28,West,278,1.0,2.0,91,0.00,,,0.01,,2013-01-18 15:22:00,
2013-01-18 07:33:00,37.0,35.0,30.28,WNW,296,1.0,2.0,91,0.00,,,0.01,,2013-01-18 15:33:00,
2013-01-18 07:42:00,37.0,35.0,30.28,WNW,296,1.0,2.0,91,0.00,,,0.01,,2013-01-18 15:42:00,
2013-01-18 07:53:00,37.0,35.0,30.28,WNW,296,1.0,2.0,91,0.00,,,0.01,,2013-01-18 15:53:00,
2013-01-18 08:02:00,37.0,35.0,30.29,WNW,296,0.0,2.0,91,0.00,,,0.01,,2013-01-18 16:02:00,
2013-01-18 08:12:00,37.0,35.0,30.29,WNW,296,0.0,2.0,91,0.00,,,0.01,,2013-01-18 16:12:00,
2013-01-18 08:22:00,37.0,35.0,30.29,WNW,296,0.0,1.0,91,0.00,,,0.01,,2013-01-18 16:22:00,
2013-01-18 08:32:00,37.0,35.0,30.29,WNW,296,1.0,2.0,91,0.00,,,0.01,,2013-01-18 16:32:00,
2013-01-18 08:42:00,37.0,35.0,30.29,WNW,296,1.0,2.0,91,0.00,,,0.01,,2013-01-18 16:42:00,
2013-01-18 08:52:00,37.0,35.0,30.29,WNW,296,1.0,2.0,91,0.00,,,0.01,,2013-01-18 16:52:00,
2013-01-18 09:02:00,38.0,36.0,30.31,WNW,296,0.0,2.0,91,0.00,,,0.01,,2013-01-18 17:02:00,
2013-01-18 09:12:00,38.0,36.0,30.31,WNW,296,0.0,2.0,91,0.00,,,0.01,,2013-01-18 17:12:00,
2013-01-18 09:22:00,38.0,36.0,30.31,WNW,296,1.0,2.0,91,0.00,,,0.01,,2013-01-18 17:22:00,
2013-01-18 09:33:00,38.0,36.0,30.31,WNW,296,0.0,1.0,91,0.00,,,0.01,,2013-01-18 17:33:00,
2013-01-18 09:42:00,38.0,36.0,30.31,WNW,296,0.0,1.0,91,0.00,,,0.01,,2013-01-18 17:42:00,
2013-01-18 09:53:00,38.0,36.0,30.31,WNW,296,0.0,0.0,92,0.00,,,0.01,,2013-01-18 17:53:00,
2013-01-18 10:03:00,38.0,36.0,30.31,WNW,296,0.0,1.0,92,0.00,,,0.01,,2013-01-18 18:03:00,
2013-01-18 10:12:00,38.0,36.0,30.31,WNW,296,0.0,1.0,92,0.00,,,0.01,,2013-01-18 18:12:00,
2013-01-18 10:22:00,39.0,37.0,30.31,WNW,296,0.0,1.0,92,0.00,,,0.01,,2013-01-18 18:22:00,
2013-01-18 10:32:00,39.0,37.0,30.32,WNW,296,0.0,1.0,92,0.00,,,0.01,,2013-01-18 18:32:00,
2013-01-18 10:43:00,39.0,37.0,30.32,WNW,296,0.0,1.0,92,0.00,,,0.01,,2013-01-18 18:43:00,
2013-01-18 10:53:00,40.0,38.0,30.32,WNW,296,0.0,1.0,92,0.00,,,0.01,,2013-01-18 18:53:00,
2013-01-18 11:02:00,40.0,38.0,30.32,WNW,296,0.0,2.0,92,0.00,,,0.01,,2013-01-18 19:02:00,
2013-01-18 11:12:00,40.0,38.0,30.32,WNW,296,0.0,2.0,92,0.00,,,0.01,,2013-01-18 19:12:00,
2013-01-18 11:22:00,40.0,38.0,30.32,WNW,296,0.0,1.0,92,0.00,,,0.00,,2013-01-18 19:22:00,
2013-01-18 11:32:00,41.0,39.0,30.32,WNW,296,0.0,2.0,92,0.00,,,0.00,,2013-01-18 19:32:00,
2013-01-18 11:42:00,41.0,39.0,30.32,WNW,296,0.0,2.0,92,0.00,,,0.00,,2013-01-18 19:42:00,
2013-01-18 11:53:00,41.0,39.0,30.32,WNW,296,0.0,0.0,92,0.00,,,0.00,,2013-01-18 19:53:00,
2013-01-18 12:02:00,42.0,40.0,30.32,WNW,299,1.0,5.0,92,0.00,,,0.00,,2013-01-18 20:02:00,
2013-01-18 12:12:00,42.0,40.0,30.32,WNW,299,1.0,5.0,92,0.00,,,0.00,,2013-01-18 20:12:00,
2013-01-18 12:22:00,43.0,40.0,30.32,North,351,1.0,3.0,90,0.00,,,0.00,,2013-01-18 20:22:00,
2013-01-18 12:32:00,43.0,40.0,30.32,West,265,0.0,2.0,89,0.00,,,0.00,,2013-01-18 20:32:00,
2013-01-18 12:42:00,43.0,40.0,30.32,West,265,0.0,2.0,89,0.00,,,0.00,,2013-01-18 20:42:00,
2013-01-18 12:53:00,43.0,39.0,30.31,SW,232,0.0,3.0,86,0.00,,,0.00,,2013-01-18 20:53:00,
2013-01-18 13:02:00,44.0,40.0,30.31,SSE,155,0.0,3.0,85,0.00,,,0.00,,2013-01-18 21:02:00,
2013-01-18 13:12:00,44.0,40.0,30.31,SSE,155,0.0,3.0,85,0.00,,,0.00,,2013-01-18 21:12:00,
2013-01-18 13:22:00,44.0,39.0,30.31,WNW,298,1.0,3.0,83,0.00,,,0.00,,2013-01-18 21:22:00,
2013-01-18 13:32:00,44.0,39.0,30.31,ENE,63,1.0,4.0,81,0.00,,,0.00,,2013-01-18 21:32:00,
2013-01-18 13:42:00,44.0,39.0,30.31,ENE,63,1.0,4.0,81,0.00,,,0.00,,2013-01-18 21:42:00,
2013-01-18 13:53:00,44.0,39.0,30.30,North,355,0.0,3.0,81,0.00,,,0.00,,2013-01-18 21:53:00,
2013-01-18 14:02:00,44.0,39.0,30.31,WSW,239,1.0,4.0,81,0.00,,,0.00,,2013-01-18 22:02:00,
2013-01-18 14:12:00,44.0,39.0,30.31,WSW,239,1.0,4.0,81,0.00,,,0.00,,2013-01-18 22:12:00,
2013-01-18 14:22:00,43.0,37.0,30.31,NW,316,1.0,3.0,80,0.00,,,0.00,,2013-01-18 22:22:00,
2013-01-18 14:32:00,44.0,38.0,30.31,North,355,0.0,2.0,80,0.00,,,0.00,,2013-01-18 22:32:00,
2013-01-18 14:42:00,44.0,38.0,30.31,North,355,0.0,2.0,80,0.00,,,0.00,,2013-01-18 22:42:00,
2013-01-18 14:52:00,44.0,38.0,30.30,WNW,296,0.0,3.0,80,0.00,,,0.00,,2013-01-18 22:52:00,
2013-01-18 15:02:00,44.0,38.0,30.31,SW,227,0.0,3.0,80,0.00,,,0.00,,2013-01-18 23:02:00,
2013-01-18 15:11:00,44.0,38.0,30.31,SW,227,0.0,3.0,80,0.00,,,0.00,,2013-01-18 23:11:00,
2013-01-18 15:22:00,44.0,38.0,30.31,NW,326,1.0,3.0,78,0.00,,,0.00,,2013-01-18 23:22:00,
2013-01-18 15:32:00,43.0,37.0,30.32,SW,227,1.0,5.0,79,0.00,,,0.00,,2013-01-18 23:32:00,
2013-01-18 15:42:00,43.0,37.0,30.32,SW,227,1.0,5.0,79,0.00,,,0.00,,2013-01-18 23:42:00,
2013-01-18 15:53:00,43.0,37.0,30.32,North,360,1.0,4.0,80,0.00,,,0.00,,2013-01-18 23:53:00,
2013-01-18 16:02:00,43.0,37.0,30.32,North,355,1.0,3.0,80,0.00,,,0.00,,2013-01-19 00:02:00,
2013-01-18 16:12:00,43.0,37.0,30.32,North,355,1.0,3.0,80,0.00,,,0.00,,2013-01-19 00:12:00,
2013-01-18 16:22:00,42.0,37.0,30.32,WNW,302,0.0,3.0,81,0.00,,,0.00,,2013-01-19 00:22:00,
2013-01-18 16:32:00,42.0,37.0,30.32,WNW,294,0.0,3.0,81,0.00,,,0.00,,2013-01-19 00:32:00,
2013-01-18 16:42:00,42.0,37.0,30.32,WNW,294,0.0,3.0,81,0.00,,,0.00,,2013-01-19 00:42:00,
2013-01-18 16:53:00,42.0,36.0,30.32,NNW,338,0.0,0.0,80,0.00,,,0.00,,2013-01-19 00:53:00,
2013-01-18 17:02:00,42.0,37.0,30.32,NNW,338,0.0,0.0,81,0.00,,,0.00,,2013-01-19 01:02:00,
2013-01-18 17:12:00,42.0,37.0,30.32,NNW,338,0.0,0.0,81,0.00,,,0.00,,2013-01-19 01:12:00,
2013-01-18 17:22:00,42.0,37.0,30.32,NNW,338,0.0,1.0,82,0.00,,,0.00,,2013-01-19 01:22:00,
2013-01-18 17:32:00,41.0,36.0,30.32,NNW,344,0.0,1.0,82,0.00,,,0.00,,2013-01-19 01:32:00,
2013-01-18 17:42:00,41.0,36.0,30.32,NNW,344,0.0,1.0,82,0.00,,,0.00,,2013-01-19 01:42:00,
2013-01-18 17:52:00,41.0,36.0,30.32,NNW,344,0.0,1.0,83,0.00,,,0.00,,2013-01-19 01:52:00,
2013-01-18 18:02:00,41.0,36.0,30.32,NNW,344,0.0,3.0,83,0.00,,,0.00,,2013-01-19 02:02:00,
2013-01-18 18:12:00,41.0,36.0,30.32,NNW,344,0.0,3.0,83,0.00,,,0.00,,2013-01-19 02:12:00,
2013-01-18 18:22:00,40.0,36.0,30.31,NNW,344,0.0,1.0,84,0.00,,,0.00,,2013-01-19 02:22:00,
2013-01-18 18:32:00,40.0,36.0,30.31,NNW,344,0.0,1.0,84,0.00,,,0.00,,2013-01-19 02:32:00,
2013-01-18 18:42:00,40.0,36.0,30.31,NNW,344,0.0,1.0,84,0.00,,,0.00,,2013-01-19 02:42:00,
2013-01-18 18:53:00,40.0,36.0,30.32,NNW,344,0.0,1.0,85,0.00,,,0.00,,2013-01-19 02:53:00,
2013-01-18 19:02:00,40.0,36.0,30.32,NNW,344,0.0,1.0,85,0.00,,,0.00,,2013-01-19 03:02:00,
2013-01-18 19:12:00,40.0,36.0,30.32,NNW,344,0.0,1.0,85,0.00,,,0.00,,2013-01-19 03:12:00,
2013-01-18 19:22:00,40.0,36.0,30.32,NNW,344,0.0,0.0,86,0.00,,,0.00,,2013-01-19 03:22:00,
2013-01-18 19:32:00,40.0,36.0,30.32,NNW,344,0.0,1.0,86,0.00,,,0.00,,2013-01-19 03:32:00,
2013-01-18 19:42:00,40.0,36.0,30.32,NNW,344,0.0,1.0,86,0.00,,,0.00,,2013-01-19 03:42:00,
2013-01-18 19:52:00,40.0,36.0,30.33,NNW,344,0.0,0.0,86,0.00,,,0.00,,2013-01-19 03:52:00,
2013-01-18 20:02:00,40.0,36.0,30.32,NNW,344,0.0,1.0,86,0.00,,,0.00,,2013-01-19 04:02:00,
2013-01-18 20:12:00,40.0,36.0,30.32,NNW,344,0.0,1.0,86,0.00,,,0.00,,2013-01-19 04:12:00,
2013-01-18 20:22:00,40.0,36.0,30.32,NNW,344,0.0,0.0,86,0.00,,,0.00,,2013-01-19 04:22:00,
2013-01-18 20:32:00,40.0,36.0,30.32,NNW,344,0.0,0.0,87,0.00,,,0.00,,2013-01-19 04:32:00,
2013-01-18 20:42:00,40.0,36.0,30.32,NNW,344,0.0,0.0,87,0.00,,,0.00,,2013-01-19 04:42:00,
2013-01-18 20:53:00,40.0,36.0,30.33,NNW,344,0.0,0.0,87,0.00,,,0.00,,2013-01-19 04:53:00,
2013-01-18 21:03:00,40.0,36.0,30.33,NNW,344,0.0,1.0,87,0.00,,,0.00,,2013-01-19 05:03:00,
2013-01-18 21:12:00,40.0,36.0,30.33,NNW,344,0.0,1.0,87,0.00,,,0.00,,2013-01-19 05:12:00,
2013-01-18 21:22:00,40.0,36.0,30.34,NNW,344,0.0,1.0,87,0.00,,,0.00,,2013-01-19 05:22:00,
2013-01-18 21:32:00,40.0,36.0,30.34,North,350,0.0,1.0,87,0.00,,,0.00,,2013-01-19 05:32:00,
2013-01-18 21:42:00,40.0,36.0,30.34,North,350,0.0,1.0,87,0.00,,,0.00,,2013-01-19 05:42:00,
2013-01-18 21:53:00,40.0,36.0,30.34,North,350,0.0,0.0,87,0.00,,,0.00,,2013-01-19 05:53:00,
2013-01-18 22:02:00,40.0,36.0,30.35,North,350,0.0,1.0,87,0.00,,,0.00,,2013-01-19 06:02:00,
2013-01-18 22:12:00,40.0,36.0,30.35,North,350,0.0,1.0,87,0.00,,,0.00,,2013-01-19 06:12:00,
2013-01-18 22:22:00,40.0,36.0,30.35,North,350,0.0,0.0,87,0.00,,,0.00,,2013-01-19 06:22:00,
2013-01-18 22:32:00,39.0,35.0,30.35,North,350,0.0,1.0,87,0.00,,,0.00,,2013-01-19 06:32:00,
2013-01-18 22:42:00,39.0,35.0,30.35,North,350,0.0,1.0,87,0.00,,,0.00,,2013-01-19 06:42:00,
2013-01-18 22:53:00,39.0,35.0,30.35,North,350,0.0,0.0,87,0.00,,,0.00,,2013-01-19 06:53:00,
2013-01-18 23:02:00,39.0,36.0,30.35,North,350,0.0,1.0,88,0.00,,,0.00,,2013-01-19 07:02:00,
2013-01-18 23:12:00,39.0,36.0,30.35,North,350,0.0,1.0,88,0.00,,,0.00,,2013-01-19 07:12:00,
2013-01-18 23:22:00,39.0,36.0,30.35,North,350,0.0,0.0,88,0.00,,,0.00,,2013-01-19 07:22:00,
2013-01-18 23:32:00,39.0,36.0,30.35,North,350,0.0,0.0,88,0.00,,,0.00,,2013-01-19 07:32:00,
2013-01-18 23:42:00,39.0,36.0,30.35,North,350,0.0,0.0,88,0.00,,,0.00,,2013-01-19 07:42:00,
2013-01-18 23:52:00,39.0,36.0,30.35,North,350,0.0,0.0,88,0.00,,,0.00,,2013-01-19 07:52:00,